[[{"header":{"parameterUnit":"m.s-1","parameterCategory":1,"la1":30.2991,"la2":30.254,"lo1":-89.0895,"lo2":-89.0444,"dy":0.0017,"dx":0.0017,"nx":28,"ny":28,"refTime":"2025-03-29T21:00:00:Z","depth":0,"parameterNumber":2,"parameterNumberName":"U-component_of_WINDS"},"data":[0,0,0,0,0,0,0,0,0,0,0,0,0,0,0,0,0,0,0,0,0,0,0,0,0,0,0,0,0,0,0,0,0,0,0,0,0,0,0,0,0,0,0,0,0,0,0,0,0,0,0,0,0,0,0,0,0,0,-1.6653,-1.6654,0,-1.6751,-1.6753,-1.6754,-1.6803,-1.6803,-1.6803,-1.6803,-1.6903,-1.6905,-1.6908,0,0,0,0,0,0,0,0,0,0,0,0,0,-1.6507,-1.6509,-1.6653,-1.6654,-1.6655,-1.6751,-1.6753,-1.6754,-1.6803,-1.6803,-1.6803,-1.6803,-1.6902,-1.6905,-1.6908,0,0,0,0,0,0,0,0,0,0,0,0,0,-1.6584,-1.651,-1.6653,-1.6691,-1.6696,-1.6751,-1.6753,-1.6754,-1.6803,-1.6803,-1.6803,-1.6803,-1.6901,-1.6905,-1.6909,-1.6933,0,0,-1.6921,-1.6923,0,0,0,0,0,0,0,0,-1.658,-1.6589,-1.6684,-1.6689,-1.6694,-1.6765,-1.6738,-1.6814,-1.6803,-1.6762,-1.6803,-1.6803,-1.6857,-1.6864,-1.6883,-1.6938,-1.6942,-1.6921,-1.6924,-1.6925,-1.6926,0,0,0,0,0,0,0,-1.6574,-1.6585,-1.6692,-1.6686,-1.6691,-1.6703,-1.6714,-1.6752,-1.6808,-1.6766,-1.6769,-1.678,-1.6859,-1.6879,-1.6886,-1.6943,-1.6921,-1.6925,-1.6927,-1.6929,-1.7023,-1.7023,0,0,0,0,0,0,-1.6563,-1.6581,-1.6689,-1.6695,-1.6636,-1.6706,-1.6718,-1.6742,-1.6808,-1.6818,-1.678,-1.6782,-1.6872,-1.6881,-1.6889,-1.6922,-1.6925,-1.6929,-1.6931,-1.7023,-1.7023,-1.7023,0,0,0,0,0,0,-1.6559,-1.6572,-1.6685,-1.6639,-1.6654,-1.6709,-1.6735,-1.6744,-1.6763,-1.6819,-1.6829,-1.679,-1.6872,-1.6884,-1.6922,-1.6926,-1.6931,-1.6934,-1.7023,-1.7023,-1.7023,-1.6988,0,0,0,0,0,0,-1.6555,-1.657,-1.658,-1.6639,-1.6656,-1.6716,-1.6735,-1.6746,-1.677,-1.6774,-1.6831,-1.684,-1.6873,-1.6916,-1.6926,-1.6932,-1.6938,-1.7023,-1.7023,-1.7023,-1.6989,-1.6987,-1.6985,0,0,0,0,0,-1.655,-1.6566,-1.6581,-1.6593,-1.667,-1.6716,-1.6726,-1.6764,-1.677,-1.6781,-1.6816,-1.6838,-1.6924,-1.6919,-1.6931,-1.6938,-1.7023,-1.7023,-1.7023,-1.699,-1.6987,-1.6985,0,0,0,0,0,0,-1.6507,-1.6575,-1.6591,-1.6628,-1.6666,-1.6724,-1.6739,-1.676,-1.6797,-1.6799,-1.6844,-1.6857,-1.6891,-1.6918,-1.6912,-1.6965,-1.6975,-1.6978,-1.6946,-1.6944,-1.6942,-1.6935,-1.6941,0,0,0,0,0,-1.6502,-1.6534,-1.6591,-1.6618,-1.6636,-1.6684,-1.6705,-1.6731,-1.6772,-1.6789,-1.6827,-1.6866,-1.6902,-1.6924,-1.696,-1.6993,-1.7006,-1.7004,-1.7002,-1.7,-1.7002,-1.7021,-1.7021,-1.7024,-1.7024,-1.7024,0,0,-1.6492,-1.6533,-1.655,-1.661,-1.6643,-1.6675,-1.6697,-1.673,-1.6754,-1.6794,-1.6832,-1.6861,-1.6908,-1.6943,-1.6961,-1.6967,-1.7004,-1.7,-1.6999,-1.7002,-1.7022,-1.7021,-1.7021,-1.7024,-1.7024,-1.7024,0,0,-1.649,-1.6524,-1.655,-1.6582,-1.6631,-1.6662,-1.6668,-1.6724,-1.6745,-1.6784,-1.6814,-1.6843,-1.6904,-1.6936,-1.696,-1.6969,-1.6991,-1.698,-1.697,-1.6988,-1.6988,-1.6988,-1.6991,-1.6992,-1.6981,-1.6981,-1.6981,0,-1.6471,-1.652,-1.656,-1.6591,-1.6617,-1.6654,-1.668,-1.671,-1.6768,-1.6784,-1.6791,-1.6868,-1.6901,-1.6945,-1.6947,-1.6965,-1.6974,-1.6974,-1.6985,-1.6985,-1.6986,-1.6989,-1.6991,-1.6979,-1.698,-1.698,-1.698,0,-1.6495,-1.6528,-1.6543,-1.6599,-1.6626,-1.6654,-1.6698,-1.6721,-1.6744,-1.6774,-1.6814,-1.6856,-1.6901,-1.6913,-1.6936,-1.696,-1.6962,-1.6976,-1.6987,-1.6983,-1.6987,-1.6989,-1.6977,-1.6978,-1.6978,-1.6979,0,0,-1.647,-1.6546,-1.6551,-1.6576,-1.6633,-1.6659,-1.6689,-1.6733,-1.6752,-1.679,-1.6816,-1.6867,-1.688,-1.6907,-1.6934,-1.695,-1.6955,-1.6962,-1.6964,-1.6959,-1.6983,-1.6973,-1.6974,-1.6969,-1.6969,-1.697,-1.6979,0,-1.6476,-1.6531,-1.6568,-1.6609,-1.664,-1.6676,-1.6702,-1.6739,-1.6768,-1.6799,-1.6832,-1.6867,-1.6881,-1.6898,-1.6915,-1.695,-1.696,-1.695,-1.6994,-1.6995,-1.6981,-1.6976,-1.6965,-1.6972,-1.6981,-1.6982,-1.6982,0,-1.649,-1.6528,-1.6572,-1.6624,-1.6639,-1.6662,-1.6705,-1.6734,-1.6777,-1.6797,-1.6827,-1.6854,-1.6887,-1.6895,-1.6941,-1.6934,-1.6954,-1.6973,-1.6975,-1.698,-1.6988,-1.6982,-1.6975,-1.6976,-1.6985,-1.6985,-1.6984,0,-1.6467,-1.6529,-1.6563,-1.6584,-1.6646,-1.6661,-1.6688,-1.6731,-1.6755,-1.6792,-1.6808,-1.6849,-1.6872,-1.6903,-1.694,-1.6942,-1.6982,-1.6993,-1.7,-1.6999,-1.7007,-1.7006,-1.7004,-1.7019,-1.7019,-1.7019,-1.7019,0,-1.647,-1.6496,-1.6554,-1.6575,-1.6604,-1.6646,-1.6674,-1.6704,-1.6741,-1.6769,-1.6802,-1.6827,-1.6875,-1.6906,-1.6935,-1.6969,-1.6978,-1.6996,-1.7003,-1.6993,-1.6991,-1.7007,-1.7008,-1.702,-1.702,-1.7019,-1.7019,0,-1.645,-1.649,-1.653,-1.6585,-1.6599,-1.6619,-1.6666,-1.6688,-1.6719,-1.6753,-1.6764,-1.6812,-1.685,-1.6891,-1.6942,-1.6962,-1.6994,-1.7005,-1.698,-1.6984,-1.6989,-1.6988,-1.6997,-1.7001,-1.7013,-1.7013,-1.7013,0,-1.645,-1.647,-1.6528,-1.6548,-1.6574,-1.6607,-1.6632,-1.6673,-1.6697,-1.6747,-1.6763,-1.6803,-1.6838,-1.6897,-1.6937,-1.6976,-1.6988,-1.6989,-1.6995,-1.6984,-1.6989,-1.6987,-1.6989,-1.6987,-1.6987,-1.6986,-1.6986,0,-1.6444,-1.6463,-1.6497,-1.6538,-1.6566,-1.6601,-1.6636,-1.6651,-1.67,-1.6725,-1.6764,-1.6791,-1.6844,-1.6884,-1.6928,-1.6956,-1.6979,-1.6984,-1.6988,-1.6978,-1.6962,-1.6971,-1.6975,-1.6984,-1.6984,-1.6984,-1.6984,-1.6984,-1.6434,-1.6454,-1.6498,-1.6534,-1.6565,-1.6598,-1.6621,-1.6654,-1.6688,-1.6734,-1.6756,-1.6795,-1.6838,-1.69,-1.6926,-1.6958,-1.6965,-1.697,-1.6971,-1.6972,-1.697,-1.6957,-1.6966,-1.6966,-1.6966,-1.6966,-1.6966,0,-1.6431,-1.6461,-1.6494,-1.6543,-1.6571,-1.6591,-1.6631,-1.6654,-1.6688,-1.6725,-1.6758,-1.6803,-1.6842,-1.6885,-1.6926,-1.6943,-1.6954,-1.6952,-1.6952,-1.6957,-1.6961,-1.6954,-1.6942,-1.6942,-1.6942,-1.6942,-1.6942,-1.6942,-1.6433,-1.6467,-1.6491,-1.6541,-1.657,-1.6609,-1.663,-1.666,-1.669,-1.6739,-1.6771,-1.6798,-1.6838,-1.6882,-1.6918,-1.693,-1.6944,-1.6938,-1.6953,-1.6955,-1.6957,-1.6959,-1.6953,-1.6941,-1.6941,-1.6947,-1.6947,-1.6947]},{"header":{"parameterUnit":"m.s-1","parameterCategory":1,"la1":30.2991,"la2":30.254,"lo1":-89.0895,"lo2":-89.0444,"dy":0.0017,"dx":0.0017,"nx":28,"ny":28,"refTime":"2025-03-29T21:00:00:Z","depth":0,"parameterNumber":3,"parameterNumberName":"V-component_of_WINDS"},"data":[0,0,0,0,0,0,0,0,0,0,0,0,0,0,0,0,0,0,0,0,0,0,0,0,0,0,0,0,0,0,0,0,0,0,0,0,0,0,0,0,0,0,0,0,0,0,0,0,0,0,0,0,0,0,0,0,0,0,4.5612,4.5613,0,4.5683,4.5684,4.5685,4.5672,4.5671,4.5669,4.5668,4.5736,4.5739,4.5742,0,0,0,0,0,0,0,0,0,0,0,0,0,4.5464,4.5467,4.5612,4.5613,4.5614,4.5683,4.5684,4.5685,4.5672,4.567,4.5669,4.5668,4.5735,4.5739,4.5742,0,0,0,0,0,0,0,0,0,0,0,0,0,4.5531,4.5468,4.5612,4.5616,4.5617,4.5683,4.5684,4.5685,4.5672,4.567,4.5669,4.5667,4.5734,4.5738,4.5743,4.5808,0,0,4.5756,4.5758,0,0,0,0,0,0,0,0,4.5527,4.5537,4.5615,4.5616,4.5617,4.5667,4.5657,4.5726,4.5673,4.5651,4.5668,4.5666,4.5714,4.572,4.5738,4.5811,4.5814,4.5757,4.576,4.5762,4.5763,0,0,0,0,0,0,0,4.5523,4.5533,4.564,4.5616,4.5617,4.5614,4.5621,4.567,4.5692,4.5653,4.5652,4.5661,4.5715,4.5733,4.5739,4.5815,4.5757,4.5761,4.5763,4.5765,4.5947,4.595,0,0,0,0,0,0,4.5517,4.553,4.5638,4.5642,4.5567,4.5618,4.5626,4.5653,4.5692,4.5696,4.5662,4.566,4.5727,4.5734,4.5741,4.5822,4.5761,4.5766,4.5768,4.5945,4.5948,4.595,0,0,0,0,0,0,4.5514,4.5527,4.5635,4.5586,4.5599,4.5622,4.5652,4.5655,4.5674,4.5699,4.5703,4.5678,4.5725,4.5735,4.5792,4.5824,4.5768,4.5772,4.5943,4.5946,4.5949,4.5982,0,0,0,0,0,0,4.551,4.5526,4.5551,4.5587,4.5602,4.5685,4.5654,4.5658,4.5682,4.5679,4.5714,4.5718,4.5725,4.5786,4.5797,4.5829,4.5775,4.594,4.5944,4.5948,4.5978,4.5986,4.5993,0,0,0,0,0,4.5505,4.5556,4.5553,4.5566,4.5634,4.5687,4.5696,4.5704,4.5684,4.571,4.5727,4.5717,4.5819,4.5792,4.5804,4.5838,4.5938,4.5943,4.5948,4.5975,4.5985,4.5993,0,0,0,0,0,0,4.5522,4.5561,4.5557,4.5622,4.5652,4.5685,4.5717,4.5713,4.5748,4.5744,4.5751,4.5759,4.5818,4.5833,4.5802,4.5904,4.5876,4.5883,4.5892,4.5901,4.5909,4.5904,4.5779,0,0,0,0,0,4.5533,4.5574,4.5606,4.5659,4.5675,4.5694,4.5717,4.5721,4.5751,4.5764,4.5784,4.5813,4.5852,4.5877,4.5914,4.598,4.5989,4.601,4.6017,4.6023,4.603,4.6069,4.6079,4.5966,4.5966,4.5966,0,0,4.5557,4.5583,4.5608,4.5664,4.5687,4.5729,4.5704,4.5749,4.578,4.577,4.5826,4.5842,4.5875,4.5938,4.5967,4.5953,4.6063,4.603,4.6034,4.6038,4.6075,4.6086,4.6095,4.597,4.5969,4.5969,0,0,4.5622,4.5646,4.5695,4.572,4.5757,4.5769,4.5781,4.5816,4.5827,4.5884,4.5878,4.5915,4.5981,4.6006,4.6027,4.6104,4.6097,4.6116,4.6154,4.6192,4.62,4.6208,4.6238,4.6248,4.6122,4.6122,4.6122,0,4.5647,4.5711,4.572,4.5767,4.5792,4.5787,4.5837,4.586,4.5906,4.5923,4.5908,4.5993,4.6014,4.6084,4.6103,4.612,4.6134,4.6112,4.6199,4.6207,4.6214,4.6243,4.6254,4.6124,4.6124,4.6124,4.6124,0,4.574,4.5785,4.582,4.5868,4.5897,4.5944,4.5961,4.5989,4.5991,4.6005,4.6064,4.609,4.6134,4.615,4.6151,4.6221,4.6211,4.6197,4.6168,4.6227,4.6254,4.6265,4.6128,4.6127,4.6126,4.6126,0,0,4.5817,4.5872,4.5885,4.5908,4.5949,4.5983,4.6031,4.6076,4.6101,4.6133,4.6174,4.6232,4.622,4.6244,4.6248,4.628,4.6343,4.6262,4.6263,4.6278,4.6424,4.6436,4.6448,4.6339,4.6341,4.6342,4.6422,0,4.5888,4.5975,4.5986,4.6063,4.6105,4.6102,4.6144,4.6174,4.6189,4.6226,4.6242,4.6284,4.6264,4.6279,4.6311,4.6329,4.6373,4.6323,4.6377,4.6379,4.6371,4.6462,4.6474,4.6548,4.6432,4.6434,4.6435,0,4.5982,4.602,4.6102,4.6141,4.6159,4.6197,4.624,4.6276,4.631,4.6319,4.6347,4.6347,4.6397,4.6367,4.6436,4.6402,4.6425,4.6437,4.644,4.6446,4.6412,4.6472,4.6571,4.6583,4.6451,4.645,4.6449,0,4.6033,4.6104,4.6164,4.6183,4.6228,4.6256,4.6276,4.6308,4.6335,4.6372,4.639,4.6431,4.6454,4.6486,4.6498,4.6474,4.6568,4.6537,4.6577,4.6577,4.6598,4.6596,4.6703,4.661,4.6609,4.6609,4.6609,0,4.6111,4.6162,4.6188,4.6224,4.6281,4.6293,4.6349,4.6367,4.6397,4.6437,4.6435,4.6473,4.6485,4.6525,4.6534,4.6591,4.6601,4.661,4.6612,4.6611,4.661,4.6627,4.6623,4.6612,4.6611,4.6611,4.661,0,4.6178,4.6197,4.6262,4.6301,4.6312,4.6352,4.6385,4.6421,4.6436,4.6487,4.6499,4.6523,4.657,4.6585,4.664,4.6646,4.6714,4.671,4.6703,4.6704,4.6744,4.6741,4.6866,4.6884,4.6777,4.6778,4.6779,0,4.6228,4.6267,4.6312,4.634,4.6362,4.6406,4.6434,4.6447,4.6477,4.652,4.6551,4.6598,4.6636,4.6711,4.6732,4.6775,4.6774,4.6815,4.678,4.6779,4.6777,4.6775,4.678,4.6822,4.6823,4.6824,4.6825,0,4.6315,4.6323,4.6365,4.6411,4.6446,4.6482,4.6517,4.6539,4.6558,4.6591,4.664,4.667,4.6729,4.6775,4.682,4.6839,4.6836,4.6835,4.6847,4.6848,4.6843,4.6848,4.6723,4.6833,4.6832,4.6831,4.6831,4.683,4.6376,4.6412,4.645,4.6498,4.6526,4.6559,4.6596,4.6617,4.6658,4.6709,4.6713,4.6767,4.6801,4.6861,4.6883,4.6925,4.6913,4.693,4.6934,4.6939,4.6943,4.6835,4.6933,4.6932,4.6932,4.6932,4.6932,0,4.6465,4.649,4.6534,4.6584,4.6622,4.6617,4.6656,4.6687,4.6735,4.6769,4.6807,4.6865,4.6911,4.6937,4.6983,4.7012,4.7011,4.7023,4.7022,4.7027,4.695,4.6936,4.7023,4.7023,4.7023,4.7023,4.7023,4.7023,4.6516,4.6578,4.6591,4.6668,4.6691,4.6746,4.6769,4.68,4.6827,4.6892,4.6931,4.6949,4.698,4.7029,4.7071,4.7077,4.7095,4.7109,4.7114,4.7042,4.7032,4.7024,4.7011,4.7112,4.7112,4.7189,4.719,4.719]}]]